Regional Weather Roundup
Issued by NWS Northern Indiana

Home | Current Version | Previous Version | Text Only | Print | Product List | Glossary Off
Versions: 1 2 3 4 5 6 7 8 9 10 11 12 13 14 15 16 17 18 19 20 21 22 23 24 25 26 27 28 29 30 31 32 33 34 35 36 37 38 39 40 41 42 43 44 45 46 47 48 49 50

243
ASUS43 KIWX 310410
RWRIWX

KIWX WEATHER ROUNDUP
NATIONAL WEATHER SERVICE NORTHERN INDIANA
1200 AM EDT SUN JUL 31 2016

NOTE: "FAIR" INDICATES FEW OR NO CLOUDS BELOW 12,000 FEET WITH NO
SIGNIFICANT WEATHER AND/OR OBSTRUCTIONS TO VISIBILITY.

* THESE STATIONS ARE NOT UNDER NWS QUALITY CONTROL. THEY ALSO MAY NOT
  REPORT WEATHER SUCH AS PRECIPITATION OR FOG.

INZ001>027-310500-
NORTHERN INDIANA

CITY           SKY/WX    TMP DP  RH WIND       PRES   REMARKS
GARY*          PTCLDY    73  69  88 NE7       30.01R
VALPARAISO     CLEAR     67  65  93 CALM      30.01R
MICHIGAN CITY* CLEAR     64  64 100 CALM      30.01R
LAPORTE*       CLEAR     69  69 100 CALM      30.01R
KNOX*          MOCLDY    64  63  94 N5        29.99S
SOUTH BEND     CLEAR     67  65  93 NE5       30.00S
GOSHEN         CLOUDY    70  66  87 NE5       30.00R
MONTICELLO*    PTCLDY    68  64  88 NW3       29.98S
LOGANSPORT*    CLOUDY    68  66  94 CALM      29.99R
ROCHESTER*     PTCLDY    72  72 100 CALM      30.00R
WARSAW*        MOCLDY    70  68  94 NE6       30.00R
ANGOLA*          N/A     70  61  73 NE5       30.00S
FORT WAYNE     MOCLDY    71  67  87 E7        29.98S
HUNTINGTON*    CLOUDY    71  70  96 CALM      29.98R
PERU/GRISSOM   PTCLDY    69  69 100 SE1       29.97S
MARION*        CLEAR     66  66  99 CALM      29.99S

$$
INZ028>050-310500-
CENTRAL INDIANA

CITY           SKY/WX    TMP DP  RH WIND       PRES   REMARKS
LAFAYETTE      PTCLDY    70  67  90 N5        29.98R
KOKOMO*        CLEAR     68  63  83 CALM      29.99S
MUNCIE*        CLEAR     70  67  90 CALM      29.99S
INDIANAPOLIS   MOCLDY    75  66  73 CALM      29.98S

$$
MIZ043>046-050>051-056>058-064>065-071>073-077>080-310500-
SOUTHWEST LOWER MICHIGAN

CITY           SKY/WX    TMP DP  RH WIND       PRES   REMARKS
BATTLE CREEK   CLOUDY    66  65  96 NE7       30.02R
BENTON HARBOR  CLEAR     66  63  90 CALM      30.00R
COLDWATER*     CLOUDY    69  68  97 E6        30.01R
HILLSDALE*     CLOUDY    66  65  94 CALM      30.01S
HOLLAND        CLEAR     68  63  84 E5        30.02S
GRAND RAPIDS   MOCLDY    66  62  87 NE7       30.03S
KALAMAZOO      PTCLDY    68  63  84 NE3       30.01S
STURGIS*       MOCLDY    68  66  96 NE5       30.00R
THREE RIVERS*  CLOUDY    69  66  90 NE3       30.01S

$$
OHZ001>008-015>018-024>025-310500-
NORTHWEST OHIO

CITY           SKY/WX    TMP DP  RH WIND       PRES   REMARKS
DEFIANCE       CLOUDY    70  67  90 N5        29.99R
FINDLAY        PTCLDY    74  67  78 E5        29.97R
TOLEDO EXPRESS CLOUDY    71  71 100 N6        29.98S
TOLEDO METCALF LGT RAIN  74  71  91 NE5       29.98F
LIMA           CLEAR     71  69  93 CALM      29.98R

$$
AND FOR LAKE MICHIGAN COASTAL AND OPEN LAKE BUOY OBSERVATIONS

STATION/POSITION TEMP    WIND        PRES    VSBY  WAVE
                 AIR SEA DIR/SP/G                  HT/PER
                 (F)     (DEG/KT/KT) (MB)    (MI)  (FT/S)
CALUMET HARBOR                       1015.2R
MICHIGAN CITY     67      40/ 12/ 12   N/A
BURNS HARBOR      70      40/ 12/ 15 1016.3R
SAINT JOSEPH      67      40/  2/  3 1016.3F
SOUTH LAKE BUOY   71 73   90/ 10/ 12 1015.5R         1/ 4
4 MI NW BRIDGMAN  66 66   20/  4/  6 1015.8R         1/ 4
MICHIGAN CITY     70 70   70/  8/ 12   N/A           2/ 4

$$
&&




USA.gov is the U.S. government's official web portal to all federal, state and local government web resources and services.